Date String (YYYY-MM-DD hh:mm:ss) UTC,Instrument flags,Ambient pressure (hPa),Sample flow (lpm),Bypass flow (lpm),Sample temperature (°C),Ambient temperature (°C),ASC tube jacket temperature (°C),LED temperature (°C),Box temperature (°C),Sample RH (%),Span deviation,Mass concentration (μg/m³),Mass concentration (μg/m³),Mass concentration (μg/m³)
DateTimeUTC,F1_M11,P_M11,Q1_M11,Q2_M11,T1_M11,T2_M11,T3_M11,T4_M11,T5_M11,U1_M11,ZSPAN_M11,X0_M11,X2_M11,X1_M11
2022-11-17 07:00:00,,0830.1,5.01,0.00,21.9,20.6,00.0,30.8,23.8,10.6,0000.0,0013.04,0005.80,0004.90
2022-11-17 07:01:00,,0830.1,4.98,0.00,21.9,20.6,00.0,30.8,23.7,10.6,0000.0,0013.58,0005.78,0004.89
2022-11-17 07:02:00,,0830.1,5.01,0.00,21.9,20.5,00.0,30.8,23.7,10.5,0000.0,0014.50,0005.78,0004.91
2022-11-17 07:03:00,,0830.1,5.01,0.00,21.9,20.5,00.0,30.8,23.7,10.5,0000.0,0014.04,0005.79,0004.92
2022-11-17 07:04:00,,0830.1,4.98,0.00,21.9,20.5,00.0,30.8,23.7,10.6,0000.0,0014.17,0005.80,0004.90
2022-11-17 07:05:00,,0830.1,5.01,0.00,21.9,20.5,00.0,30.8,23.6,10.7,0000.0,0014.16,0005.77,0004.88
2022-11-17 07:06:00,,0830.1,5.00,0.00,21.8,20.4,00.0,30.8,23.7,10.6,0000.0,0013.90,0005.76,0004.86
2022-11-17 07:07:00,,0830.1,5.01,0.00,21.8,20.3,00.0,30.8,23.6,10.5,0000.0,0013.79,0005.79,0004.86
2022-11-17 07:08:00,,0830.1,5.01,0.00,21.8,20.4,00.0,30.8,23.6,10.5,0000.0,0014.37,0005.82,0004.86
2022-11-17 07:09:00,,0830.0,4.99,0.00,21.9,21.2,00.0,30.7,23.8,10.4,0000.4,0015.10,0005.84,0004.87
2022-11-17 07:10:00,,0830.1,5.02,0.00,22.0,22.0,00.0,30.7,24.0,10.3,0002.1,0014.45,0005.83,0004.89
2022-11-17 07:11:00,,0830.1,4.99,0.00,22.1,22.0,00.0,30.8,24.1,10.3,0003.2,0014.83,0005.85,0004.89
2022-11-17 07:12:00,,0830.1,4.99,0.00,22.1,21.7,00.0,30.8,24.0,10.4,0003.3,0015.60,0005.87,0004.90
2022-11-17 07:13:00,,0830.1,5.00,0.00,22.1,21.4,00.0,30.9,24.0,10.4,0003.5,0014.81,0005.85,0004.89
2022-11-17 07:14:00,,0830.1,5.00,0.00,22.1,21.2,00.0,30.9,23.9,10.3,0003.7,0014.61,0005.83,0004.88
2022-11-17 07:15:00,,0830.1,5.00,0.00,22.1,21.0,00.0,30.9,23.9,10.4,0004.0,0014.65,0005.77,0004.87
2022-11-17 07:16:00,,0830.1,5.01,0.00,22.0,20.8,00.0,30.9,23.9,10.4,0003.8,0015.49,0005.72,0004.87
2022-11-17 07:17:00,,0830.1,5.00,0.00,22.0,20.7,00.0,30.9,23.8,10.3,0003.0,0015.65,0005.67,0004.86
2022-11-17 07:18:00,,0830.1,5.01,0.00,22.0,20.6,00.0,30.9,23.8,10.3,0000.0,0015.27,0005.62,0004.86
2022-11-17 07:19:00,,0829.9,5.00,0.00,22.0,20.6,00.0,30.9,23.8,10.2,0000.0,0015.51,0005.55,0004.84
2022-11-17 07:20:00,,0829.9,4.99,0.00,22.0,20.6,00.0,30.9,23.8,10.2,0000.0,0014.35,0005.49,0004.80
2022-11-17 07:21:00,,0829.9,5.00,0.00,22.0,20.6,00.0,30.9,23.8,10.1,0000.0,0014.80,0005.43,0004.74
2022-11-17 07:22:00,,0829.8,4.99,0.00,22.0,20.6,00.0,30.9,23.8,10.1,0000.0,0014.38,0005.36,0004.70
2022-11-17 07:23:00,,0829.9,5.00,0.00,22.0,20.5,00.0,30.9,23.8,10.1,0000.0,0012.88,0005.28,0004.66
2022-11-17 07:24:00,,0829.8,5.00,0.00,21.9,20.5,00.0,30.9,23.8,09.6,0000.0,0012.60,0005.23,0004.58
2022-11-17 07:25:00,,0829.9,5.00,0.00,21.9,20.4,00.0,30.9,23.8,09.6,0000.0,0012.90,0005.10,0004.48
2022-11-17 07:26:00,,0829.8,5.01,0.00,21.9,20.4,00.0,30.9,23.7,09.8,0000.0,0012.90,0005.06,0004.42
2022-11-17 07:27:00,,0829.8,5.00,0.00,21.9,20.4,00.0,30.9,23.7,09.7,0000.0,0012.14,0004.97,0004.33
2022-11-17 07:28:00,,0829.8,5.00,0.00,21.9,20.4,00.0,30.8,23.7,09.5,0000.0,0011.68,0004.84,0004.23
2022-11-17 07:29:00,,0829.8,5.00,0.00,21.9,20.4,00.0,30.8,23.7,09.4,0000.0,0012.01,0004.69,0004.12
2022-11-17 07:30:00,,0829.8,5.00,0.00,21.9,20.4,00.0,30.8,23.7,09.4,0000.0,0011.67,0004.62,0004.01
2022-11-17 07:31:00,,0829.8,5.00,0.00,21.9,20.5,00.0,30.8,23.7,09.7,0000.0,0011.48,0004.56,0003.95
2022-11-17 07:32:00,,0829.9,5.00,0.00,21.9,20.6,00.0,30.8,23.7,09.9,0000.0,0010.65,0004.48,0003.92
2022-11-17 07:33:00,,0829.9,5.00,0.00,21.9,21.3,00.0,30.7,23.8,10.0,0000.0,0011.84,0004.45,0003.90
2022-11-17 07:34:00,,0829.9,4.99,0.00,22.0,22.1,00.0,30.7,24.0,09.6,0000.0,0012.05,0004.40,0003.86
2022-11-17 07:35:00,,0829.7,4.99,0.00,22.1,22.0,00.0,30.8,24.1,09.1,0000.0,0011.63,0004.28,0003.79
2022-11-17 07:36:00,,0829.7,5.00,0.00,22.1,21.7,00.0,30.9,24.0,09.0,0000.0,0011.26,0004.25,0003.75
2022-11-17 07:37:00,,0829.7,5.00,0.00,22.1,21.3,00.0,30.9,24.0,09.0,0000.0,0010.84,0004.12,0003.66
2022-11-17 07:38:00,,0829.6,5.00,0.00,22.1,21.0,00.0,30.9,23.9,08.9,0000.0,0010.31,0004.02,0003.58
2022-11-17 07:39:00,,0829.7,5.00,0.00,22.0,20.7,00.0,30.9,23.8,08.9,0000.0,0010.00,0003.90,0003.49
2022-11-17 07:40:00,,0829.7,4.99,0.00,22.0,20.4,00.0,30.9,23.7,08.8,0000.0,0009.54,0003.83,0003.41
2022-11-17 07:41:00,,0829.7,5.01,0.00,21.9,20.1,00.0,30.9,23.6,08.9,0000.0,0008.60,0003.70,0003.33
2022-11-17 07:42:00,,0829.7,5.02,0.00,21.9,20.1,00.0,30.9,23.6,09.4,0000.0,0008.37,0003.59,0003.25
2022-11-17 07:43:00,,0829.7,4.98,0.00,21.9,20.1,00.0,30.9,23.6,09.6,0000.0,0008.37,0003.56,0003.19
2022-11-17 07:44:00,,0829.7,5.00,0.00,21.8,20.1,00.0,30.9,23.6,09.2,0000.0,0006.61,0003.43,0003.02
2022-11-17 07:45:00,,0829.7,5.00,0.00,21.8,20.2,00.0,30.8,23.6,09.4,0000.0,0005.85,0003.34,0002.89
2022-11-17 07:46:00,,0829.5,5.01,0.00,21.8,20.2,00.0,30.8,23.6,09.6,0000.0,0005.81,0003.33,0002.90
2022-11-17 07:47:00,,0829.6,5.01,0.00,21.8,20.2,00.0,30.8,23.6,09.6,0000.0,0005.49,0003.33,0002.92
2022-11-17 07:48:00,,0829.6,4.99,0.00,21.8,20.3,00.0,30.8,23.6,09.5,0000.0,0005.32,0003.37,0002.97
2022-11-17 07:49:00,,0829.6,4.99,0.00,21.8,20.3,00.0,30.8,23.6,09.5,0000.0,0005.56,0003.44,0003.05
2022-11-17 07:50:00,,0829.6,5.00,0.00,21.8,20.4,00.0,30.8,23.6,09.0,0000.0,0005.58,0003.45,0003.07
2022-11-17 07:51:00,,0829.6,5.00,0.00,21.8,20.4,00.0,30.8,23.6,09.0,0000.0,0005.54,0003.46,0003.10
2022-11-17 07:52:00,,0829.6,5.00,0.00,21.8,20.4,00.0,30.7,23.6,08.9,0000.0,0005.63,0003.47,0003.11
2022-11-17 07:53:00,,0829.9,5.00,0.00,21.8,20.6,00.0,30.7,23.6,08.9,0000.0,0005.74,0003.47,0003.09
2022-11-17 07:54:00,,0829.6,4.98,0.00,21.9,21.5,00.0,30.7,23.8,08.8,0000.0,0005.70,0003.40,0002.98
2022-11-17 07:55:00,,0829.6,5.00,0.00,22.0,22.3,00.0,30.7,24.0,08.8,0000.0,0005.42,0003.36,0002.96
2022-11-17 07:56:00,,0829.6,5.01,0.00,22.1,22.1,00.0,30.8,24.1,08.8,0000.0,0005.28,0003.31,0002.90
2022-11-17 07:57:00,,0829.6,5.00,0.00,22.1,21.8,00.0,30.8,24.1,08.8,0000.0,0005.02,0003.25,0002.78
2022-11-17 07:58:00,,0829.6,4.99,0.00,22.1,21.5,00.0,30.8,24.0,08.7,0000.0,0004.75,0003.17,0002.65
2022-11-17 07:59:00,,0829.7,5.00,0.00,22.1,21.3,00.0,30.9,24.0,09.2,0000.0,0004.60,0003.10,0002.58
